User: anonymous   Login
Location: Ceske Budejovice
(48.9830°N, 14.4670°E)
Time: 09:08:34
(UTC+02:00)
Language:

DX 1 - Orbit

View from above orbital plane
View from above orbital plane
View from above satellite
View from above satellite

Ground track
Ground track

The orbit data is extracted from the following two-line orbital elements,

1 40071U 14037C   19293.03540302  .00000080  00000-0  17834-4 0  9993
2 40071  98.4417  93.3331 0008183 182.7386 177.3783 14.81299436285518
Epoch (UTC): 20 October 2019 00:50:58
Eccentricity: 0.0008183
inclination: 98.4417°
perigee height: 619 km
apogee height: 631 km
right ascension of ascending node: 93.3331°
argument of perigee: 182.7386°
revolutions per day: 14.81299436
mean anomaly at epoch: 177.3783°
orbit number at epoch: 28551

The dashed part of the orbit path shows where the satellite is in the earth's shadow,  

DLR